Flag for Canada Weather past 2 weeks in Belleville, Ontario, Canada

Now
77 °F

Partly sunny.


Feels Like: 79 °F
Forecast: 61 / 77 °F
Wind: 2 mph from Southeast

Location: Trenton

Current Time: Aug 30, 2015 at 3:00:38 PM

Latest Report: Aug 30, 2015 at 2:00 PM


Visibility: 15 mi

Pressure: 30.05 "Hg

Humidity: 61%

Dew point: 63 °F

Location of BellevilleLocation

Historic Weather in Belleville — Graph

°F

Belleville temperature yesterday

Maximum temperature yesterday: 72 °F (at 12:00 PM)
Minimum temperature yesterday: 54 °F (at 2:00 AM)
Average temperature yesterday: 64 °F

Past Weeks' High & Low Weather Summary

 TemperatureHumidityPressure
High84 °F (Aug 17, 3:00 PM)100% (Aug 16, 2:00 AM)30.22 "Hg (Aug 16, 2:00 AM)
Low52 °F (Aug 28, 5:00 AM)47% (Aug 23, 6:00 PM)29.73 "Hg (Aug 20, 2:00 PM)
Average69 °F79%30.00 "Hg
* Reported Aug 15 1:00 PM — Aug 30 1:00 PM, Belleville, Weather by CustomWeather, © 2015

Note: Actual official high and low records may vary slightly from our data, if they occured in-between our weather recording intervals... More about our weather records

Advertising

Belleville weather history for previous 24 hours

 ConditionsComfort  
Time TempWeatherWind HumidityBarometerVisibility
1:00 PM
Sun, Aug 30
75 °FOvercast.3 mph61%30.06 "Hg15 mi
12:00 PM75 °FPartly sunny.2 mph69%30.08 "Hg15 mi
11:00 AM70 °FOvercast.5 mph78%30.09 "Hg15 mi
10:00 AM68 °FOvercast.5 mph83%30.10 "Hg10 mi
9:00 AM66 °FBroken clouds.3 mph88%30.09 "Hg10 mi
8:00 AM64 °FFog.2 mph94%30.07 "Hg6 mi
7:00 AM63 °FFog.3 mph94%30.07 "Hg4 mi
6:00 AM63 °FFog.2 mph94%30.06 "Hg3 mi
5:00 AM61 °FFog.No wind94%30.06 "Hg3 mi
4:00 AM61 °FPassing clouds.No wind94%30.06 "Hg15 mi
3:00 AM64 °FPassing clouds.No wind88%30.06 "Hg15 mi
2:00 AM64 °FOvercast.No wind94%30.07 "Hg15 mi
1:00 AM64 °FOvercast.No wind94%30.08 "Hg15 mi
12:00 AM64 °FPassing clouds.No wind94%30.08 "Hg15 mi
11:00 PM
Sat, Aug 29
64 °FOvercast.2 mph88%30.08 "Hg8 mi
10:00 PM66 °FOvercast.No wind88%30.09 "Hg8 mi
9:00 PM66 °FOvercast.No wind88%30.09 "Hg15 mi
8:00 PM68 °FOvercast.2 mph83%30.08 "Hg15 mi
7:00 PM70 °FOvercast.3 mph73%30.08 "Hg15 mi
6:00 PM72 °FOvercast.3 mph69%30.09 "Hg15 mi
5:00 PM72 °FOvercast.5 mph69%30.09 "Hg15 mi
4:00 PM70 °FMostly cloudy.9 mph69%30.11 "Hg15 mi
3:00 PM70 °FMostly cloudy.9 mph69%30.12 "Hg15 mi
Weather by CustomWeather, © 2015

See weather overviewHow to use our weather pages